Tracking 29892 objects as of 21-Nov-2024
HD Live streaming from Space Station
objects crossing your sky now

STARLINK-11112

Track STARLINK-11112 now!
10-day predictions
STARLINK-11112 is classified as:


NORAD ID: 60115
Int'l Code: 2024-118C
Perigee: 365.8 km
Apogee: 367.8 km
Inclination: 53.2 °
Period: 91.7 minutes
Semi major axis: 6737 km
RCS: Unknown
Launch date: June 24, 2024
Source: United States (US)
Launch site: AIR FORCE WESTERN TEST RANGE (AFWTR)
Your satellite tracking list
Your tracking list is empty




NASA's NSSDC Master Catalog

Two Line Element Set (TLE):
1 60115U 24118C   24325.24538068  .00049091  00000-0  40718-3 0  9997
2 60115  53.1562  40.3092 0001485  90.3118 269.8070 15.69738281 23473
Source of the keplerian elements: AFSPC